Wind_Speed
25 26 26 24 23 27 34 35 40 39 38 39 43 23 21 19 13 9 9 7 1 10 2 6 5 10 9 5 4 2 2 10 5 5 5 8 11 14 16 21 25 29 35
25 24 28 28 28 29 34 32 24 28 34 40 40 23 13 18 10 13 13 10 2 7 3 8 8 6 10 4 6 2 2 1 5 8 8 10 14 14 11 14 19 21 28
25 25 25 27 29 29 33 31 31 37 43 44 24 21 18 19 16 17 6 8 4 4 4 5 7 9 12 13 6 1 2 8 0 6 9 12 13 15 11 9 14 20 23
16 21 25 27 25 26 28 33 38 43 45 41 29 28 20 13 18 17 12 12 5 5 4 3 5 4 8 11 13 7 8 6 4 3 2 3 8 11 8 11 15 19 25
22 19 24 26 26 28 32 35 36 38 40 39 29 30 31 29 20 23 17 12 10 6 10 10 10 11 6 10 10 13 9 10 9 6 5 5 7 3 5 9 13 16 21
18 19 23 24 25 28 27 29 31 31 26 26 26 34 37 33 25 31 23 12 7 10 13 14 17 9 11 13 15 14 14 16 15 17 11 12 7 7 10 7 9 14 15
25 19 17 20 22 22 25 27 26 23 22 27 23 23 23 20 22 22 26 13 13 10 14 14 16 15 15 18 16 15 13 13 19 17 17 16 18 19 12 12 10 5 12
35 28 24 23 25 24 23 22 23 22 26 28 22 19 22 16 21 17 16 14 17 15 14 15 17 13 14 14 15 16 17 17 18 19 19 19 21 21 19 18 17 16 12
36 28 28 31 25 22 21 26 18 17 23 26 25 22 26 21 18 18 17 17 21 20 19 21 14 13 12 10 8 9 12 14 14 13 13 15 16 14 16 20 21 21 20
32 32 27 26 23 20 20 22 17 14 9 17 22 21 24 23 17 15 21 18 26 25 29 21 16 13 15 16 13 12 13 12 12 14 17 19 18 16 14 15 19 20 21
23 26 26 22 19 17 17 23 21 19 20 20 21 22 28 32 25 19 23 21 17 16 17 21 20 18 13 13 11 10 12 12 13 13 14 15 15 16 18 17 16 16 20
19 19 28 23 17 13 16 19 23 20 21 21 14 23 31 38 25 24 26 21 18 18 19 18 23 19 19 17 17 18 18 18 19 20 20 20 20 16 14 17 22 21 19
29 32 27 20 18 20 20 27 26 24 26 27 23 24 28 34 32 23 25 25 24 23 22 20 20 20 22 23 21 20 21 22 20 19 16 19 22 23 21 20 18 21 24
38 39 25 28 29 27 32 32 33 32 32 33 31 27 24 25 31 29 25 26 26 25 25 22 23 26 27 29 27 23 23 23 22 21 22 22 23 21 20 24 25 25 24
34 29 33 24 24 29 32 33 32 34 34 36 37 36 34 31 30 35 34 30 30 29 30 32 30 26 26 26 23 22 25 28 31 31 29 28 27 26 26 26 25 27 28
26 29 28 26 31 32 35 35 32 32 31 34 37 36 34 33 33 33 36 32 32 31 33 33 35 31 28 28 32 32 33 35 37 38 38 37 36 36 34 33 32 32 32
45 30 32 32 34 38 39 40 37 35 35 35 34 35 35 34 34 36 37 37 35 35 35 38 38 38 35 37 41 43 44 48 45 45 45 44 43 41 40 41 38 37 39
33 31 35 40 38 36 39 43 44 40 39 39 37 37 37 36 35 36 38 41 42 41 41 42 43 43 44 44 43 46 50 52 53 52 53 53 53 51 48 46 45 45 44
34 31 33 41 43 43 42 46 48 48 49 47 45 44 45 43 45 46 48 47 49 48 48 47 48 49 52 52 53 54 55 57 56 56 57 57 57 57 56 54 54 53 54
52 42 43 44 44 41 39 48 54 53 55 58 54 53 54 55 56 56 56 55 54 55 56 57 59 59 59 59 61 60 60 63 64 63 62 63 66 67 64 60 59 60 61
45 43 49 47 48 49 48 49 50 55 61 60 63 63 62 62 62 62 64 64 64 64 66 67 68 68 68 68 68 67 67 66 67 67 68 72 74 70 67 67 66 67 67
53 49 48 42 43 44 42 45 52 52 56 59 63 66 65 67 69 70 73 73 74 75 75 76 77 75 75 76 76 75 74 72 72 74 76 74 73 73 73 73 72 72 72
71 66 56 52 49 47 47 48 48 51 54 59 61 64 66 69 70 68 67 73 78 78 78 79 80 81 82 82 81 79 79 79 79 83 81 80 79 79 78 78 77 77 78
79 77 63 60 56 55 56 54 54 53 56 56 57 60 64 64 67 70 73 74 76 76 78 79 81 83 84 87 89 89 88 86 85 84 84 83 81 81 81 82 84 80 77
55 58 61 63 63 65 65 65 66 66 66 65 65 64 66 68 69 71 72 74 75 76 77 77 80 81 83 84 87 87 86 85 84 84 84 84 84 86 86 83 84 83 80
65 71 75 66 68 70 70 68 66 64 65 67 69 69 71 74 77 78 80 79 79 81 82 84 84 86 87 88 89 89 88 88 88 88 89 89 86 83 83 82 76 76 74
Wind_Direction
267 276 276 271 263 265 273 278 285 274 268 274 296 299 296 324 311 167 147 156 295 307 230 152 158 169 180 213 183 211 298 331 42 61 60 24 28 11 29 7 9 10 15
265 269 272 274 275 269 271 278 264 264 264 278 300 292 293 324 243 192 166 156 159 226 117 180 187 202 221 207 241 168 322 273 247 339 22 16 9 356 17 12 356 7 13
275 271 267 265 264 267 271 269 261 271 280 283 292 287 287 296 225 211 189 207 210 234 254 215 217 238 242 233 228 66 305 248 82 18 8 343 20 349 354 8 328 356 9
261 265 271 269 268 271 242 277 273 277 284 286 262 279 286 293 213 209 207 224 180 220 248 203 206 260 256 252 250 262 283 272 244 47 60 342 300 318 336 343 342 356 1
267 271 269 270 267 267 271 278 286 286 285 286 267 267 281 276 256 211 232 214 217 206 233 251 257 266 283 281 281 258 282 243 243 224 225 282 267 292 296 320 342 356 358
264 267 268 271 279 281 287 293 289 291 288 286 277 267 275 274 243 226 226 236 236 232 233 250 270 263 267 277 286 254 253 246 243 232 240 264 254 274 294 317 330 341 345
269 271 272 284 282 277 291 298 289 281 269 269 276 272 260 242 219 236 226 237 246 241 235 240 258 263 272 269 264 244 239 247 241 244 256 272 279 286 295 294 298 313 315
260 261 271 287 286 288 288 283 274 274 271 264 247 255 222 237 227 244 253 241 252 245 251 255 252 255 269 272 259 246 246 254 254 257 265 272 279 279 274 278 274 268 280
256 262 276 285 279 284 281 278 280 282 287 264 247 235 231 228 233 240 261 265 258 248 261 244 258 253 255 259 265 263 255 252 253 252 255 264 275 285 268 262 269 278 285
259 282 278 275 282 285 280 277 272 266 240 272 243 232 217 215 226 241 223 225 239 240 235 235 245 250 252 259 259 257 256 256 260 268 269 266 271 279 278 265 259 261 266
261 269 269 270 274 276 283 265 247 263 259 269 259 238 227 218 225 234 214 222 227 231 230 236 235 249 251 260 244 247 247 252 272 269 270 272 270 278 273 278 275 267 264
275 287 283 271 276 258 243 262 242 256 264 265 268 247 238 231 222 238 236 227 217 231 228 233 239 247 259 264 257 258 264 268 271 281 273 270 271 274 277 272 266 267 261
295 299 291 267 277 265 252 246 237 243 252 252 250 249 244 242 229 231 233 238 246 246 244 244 249 254 262 266 264 260 262 266 271 278 281 275 272 274 275 271 269 265 256
290 287 286 284 294 261 259 258 249 244 242 236 237 233 240 244 239 237 237 238 239 243 246 253 256 256 258 255 260 259 259 264 265 271 276 278 278 278 279 277 273 269 265
288 280 292 287 261 249 248 254 251 245 241 237 237 242 249 254 246 240 244 242 245 248 250 252 253 252 248 249 249 258 269 273 272 272 275 273 271 271 271 273 272 273 268
281 302 281 259 265 258 260 254 257 251 246 246 243 242 243 246 245 243 246 252 249 250 251 254 257 265 252 259 259 268 272 274 272 271 270 272 272 269 268 269 272 272 267
278 285 282 284 269 260 258 257 258 252 247 249 248 247 244 242 241 242 246 248 250 253 254 253 255 258 262 261 264 262 264 272 275 272 271 270 271 270 268 267 269 269 271
292 282 266 268 266 265 263 258 255 250 246 247 250 246 245 245 246 247 248 249 251 253 256 259 260 261 263 266 272 274 273 274 274 276 276 275 274 271 273 272 269 268 268
287 270 279 263 257 255 253 256 253 248 246 248 250 247 245 241 245 248 248 250 252 254 256 258 260 265 267 269 274 278 277 277 277 275 274 274 276 275 273 270 269 271 270
269 261 263 266 264 258 262 260 254 252 252 252 253 254 254 252 249 249 249 251 254 258 260 261 265 268 270 272 276 278 274 273 271 272 275 277 278 277 272 271 272 273 275
260 261 262 264 266 262 268 269 266 260 256 254 256 257 258 258 257 258 260 261 261 260 261 263 266 269 272 274 278 277 276 273 274 275 275 273 274 274 273 274 276 278 279
258 260 261 263 266 269 262 262 261 264 264 262 260 260 263 265 266 264 261 262 264 266 268 268 270 272 272 274 276 276 275 278 278 280 281 280 279 279 280 279 280 279 278
252 261 265 266 265 259 266 262 262 265 265 264 264 264 264 263 265 268 268 266 266 266 267 269 270 271 274 275 276 276 277 279 278 280 280 280 281 282 282 282 281 282 281
260 262 264 261 259 265 268 270 267 263 261 262 263 263 263 263 264 265 266 266 266 267 268 269 269 271 272 272 272 274 275 277 277 277 278 280 280 280 281 283 283 283 282
256 266 267 263 265 270 270 269 269 269 270 270 268 267 266 266 266 266 267 268 268 268 270 270 271 272 272 273 274 275 276 277 278 278 279 280 281 281 283 283 283 283 283
268 267 267 267 268 268 272 274 275 271 273 271 271 270 269 268 268 269 271 271 270 271 272 273 273 274 275 275 276 276 277 279 279 280 281 280 281 281 280 283 284 284 283
Height
10989 10989 10991 10994 10995 10992 10991 10993 10991 10989 10987 10987 10986 10985 10983 10984 10984 10983 10981 10980 10982 10981 10982 10983 10983 10984 10985 10986 10988 10988 10987 10987 10987 10986 10984 10982 10980 10978 10976 10973 10970 10966 10965
10988 10985 10985 10986 10986 10986 10986 10987 10986 10985 10984 10982 10982 10981 10980 10982 10981 10981 10979 10978 10981 10983 10982 10983 10983 10983 10983 10985 10987 10987 10987 10986 10985 10985 10983 10982 10982 10981 10978 10974 10971 10970 10968
10981 10978 10980 10982 10982 10983 10982 10982 10982 10982 10982 10976 10976 10977 10977 10978 10977 10979 10980 10980 10980 10982 10983 10983 10983 10982 10981 10983 10985 10986 10985 10986 10985 10986 10984 10982 10982 10982 10980 10977 10973 10973 10970
10975 10972 10974 10976 10979 10978 10978 10979 10978 10975 10972 10972 10973 10973 10974 10975 10975 10976 10978 10978 10979 10981 10982 10983 10983 10982 10981 10980 10983 10984 10985 10984 10985 10985 10985 10983 10980 10978 10978 10978 10979 10976 10973
10968 10968 10968 10968 10970 10972 10971 10970 10968 10966 10967 10964 10965 10967 10967 10971 10975 10975 10975 10976 10977 10979 10981 10983 10983 10982 10980 10979 10980 10980 10981 10982 10983 10983 10983 10981 10980 10979 10978 10977 10978 10977 10972
10963 10964 10964 10963 10963 10963 10963 10964 10964 10962 10961 10962 10963 10963 10965 10968 10968 10971 10973 10974 10974 10976 10978 10981 10980 10980 10978 10978 10977 10977 10978 10979 10981 10980 10979 10977 10980 10978 10977 10976 10975 10975 10973
10958 10959 10961 10961 10963 10962 10963 10960 10955 10952 10952 10952 10955 10960 10964 10966 10965 10965 10969 10970 10970 10972 10976 10977 10977 10976 10975 10975 10975 10975 10974 10974 10977 10977 10977 10976 10976 10975 10975 10974 10975 10974 10973
10950 10953 10954 10955 10955 10955 10955 10948 10944 10945 10948 10948 10949 10953 10959 10964 10964 10963 10963 10967 10968 10969 10971 10973 10973 10973 10972 10972 10972 10973 10973 10972 10971 10971 10972 10973 10973 10972 10970 10970 10973 10973 10973
10945 10946 10946 10946 10946 10948 10943 10936 10943 10947 10948 10946 10950 10946 10952 10960 10962 10962 10962 10962 10964 10965 10967 10968 10969 10969 10970 10970 10969 10969 10969 10968 10967 10968 10969 10969 10970 10969 10967 10968 10967 10968 10969
10943 10944 10941 10939 10943 10946 10941 10936 10941 10945 10947 10947 10945 10945 10947 10956 10960 10960 10961 10961 10961 10962 10964 10965 10966 10967 10967 10967 10968 10967 10966 10966 10965 10964 10963 10963 10964 10963 10963 10962 10963 10965 10966
10937 10938 10935 10935 10938 10940 10937 10932 10936 10936 10937 10938 10939 10938 10943 10952 10956 10956 10955 10957 10959 10960 10959 10960 10961 10962 10963 10963 10964 10964 10963 10963 10962 10961 10959 10958 10958 10958 10957 10957 10957 10958 10960
10929 10931 10931 10930 10935 10932 10936 10934 10930 10925 10928 10930 10930 10934 10941 10947 10950 10950 10950 10952 10954 10955 10955 10955 10957 10958 10958 10959 10959 10959 10958 10957 10957 10956 10955 10954 10954 10955 10955 10954 10954 10954 10956
10921 10923 10927 10926 10930 10931 10934 10935 10932 10928 10929 10931 10934 10936 10938 10940 10942 10943 10944 10946 10948 10950 10950 10951 10952 10952 10952 10953 10954 10954 10953 10952 10952 10951 10949 10949 10949 10949 10950 10950 10950 10949 10950
10915 10920 10926 10929 10932 10926 10924 10924 10926 10929 10931 10933 10933 10933 10932 10933 10935 10937 10938 10940 10941 10942 10943 10945 10945 10946 10946 10947 10948 10948 10947 10947 10946 10946 10945 10945 10944 10944 10944 10944 10945 10944 10943
10913 10914 10921 10918 10921 10922 10920 10921 10923 10924 10923 10924 10925 10925 10926 10927 10928 10930 10931 10933 10935 10936 10937 10937 10938 10939 10937 10938 10939 10940 10940 10940 10939 10939 10939 10938 10938 10937 10937 10937 10937 10936 10936
10902 10907 10909 10910 10914 10911 10912 10914 10916 10917 10917 10917 10916 10916 10917 10919 10921 10922 10923 10924 10926 10927 10928 10928 10929 10929 10931 10930 10930 10930 10931 10929 10929 10928 10928 10928 10928 10929 10928 10928 10927 10927 10928
10896 10898 10897 10900 10899 10900 10903 10906 10907 10908 10910 10910 10910 10910 10911 10911 10912 10914 10915 10916 10916 10917 10918 10919 10919 10919 10921 10921 10920 10920 10919 10918 10916 10915 10916 10916 10917 10918 10918 10917 10916 10914 10914
10887 10888 10885 10885 10891 10891 10895 10897 10898 10899 10902 10903 10903 10904 10904 10906 10907 10907 10907 10907 10906 10906 10907 10907 10907 10908 10908 10909 10909 10908 10906 10904 10903 10902 10900 10899 10900 10903 10904 10904 10902 10901 10899
10885 10881 10877 10879 10882 10880 10883 10885 10887 10890 10891 10893 10893 10895 10895 10896 10895 10896 10896 10896 10896 10896 10895 10895 10894 10893 10894 10896 10896 10895 10892 10890 10888 10886 10885 10884 10883 10883 10886 10887 10886 10884 10879
10880 10879 10872 10872 10871 10872 10873 10876 10876 10878 10881 10881 10881 10883 10884 10884 10884 10883 10884 10885 10884 10884 10884 10883 10882 10881 10881 10882 10882 10881 10878 10874 10872 10871 10869 10869 10866 10864 10864 10866 10866 10864 10862
10856 10861 10860 10860 10859 10860 10860 10863 10862 10866 10866 10866 10866 10868 10868 10869 10870 10871 10871 10871 10871 10870 10868 10868 10867 10866 10864 10864 10862 10859 10859 10857 10854 10851 10848 10847 10845 10846 10845 10844 10843 10843 10839
10845 10844 10845 10848 10850 10849 10849 10848 10848 10850 10851 10851 10850 10851 10851 10851 10852 10853 10854 10854 10852 10851 10850 10848 10847 10846 10846 10845 10843 10842 10839 10837 10835 10830 10828 10825 10824 10823 10822 10820 10819 10818 10817
10834 10836 10836 10836 10833 10835 10836 10834 10836 10837 10835 10835 10834 10835 10835 10836 10835 10834 10834 10834 10833 10831 10831 10830 10828 10826 10825 10821 10821 10819 10817 10815 10814 10811 10805 10805 10802 10801 10797 10794 10791 10790 10788
10825 10826 10824 10821 10820 10820 10820 10819 10820 10822 10821 10821 10820 10819 10818 10818 10818 10818 10817 10816 10814 10812 10810 10809 10806 10804 10802 10799 10798 10797 10796 10793 10790 10787 10784 10783 10780 10776 10773 10769 10764 10761 10760
10810 10809 10811 10805 10803 10802 10803 10804 10805 10805 10806 10805 10805 10804 10802 10801 10801 10799 10799 10797 10795 10792 10790 10788 10785 10782 10779 10776 10773 10772 10772 10770 10766 10763 10760 10757 10755 10751 10747 10743 10737 10733 10730
10790 10790 10791 10788 10786 10785 10785 10784 10784 10784 10785 10785 10784 10783 10781 10782 10781 10780 10780 10778 10775 10772 10768 10766 10764 10759 10755 10752 10749 10747 10746 10744 10740 10737 10733 10730 10726 10723 10720 10715 10711 10707 10702